When you browse on this site, cookies collect data to enhance your experience and personalize the content and advertising you see.
Visit our Privacy Policy to learn more. By continuing to use the site, you agree to this use of cookies and data.
  • In Spain
  • List of Countries
  • For 7 days
  • Water Temperature
  • Weather Map
  • Weather Widgets
  • user-avatar
    Login

    Hourly Weather Longavi

    Today, 27 January, Monday

    Time Temperature Precipitation Wind Pressure Humidity
    00:00 +20°C° 0 mm 3 mps 749 mmHg 46%
    01:00 +19°C° 0 mm 3 mps 748 mmHg 49%
    02:00 +18°C° 0 mm 2 mps 748 mmHg 53%
    03:00 +16°C° 0 mm 2 mps 748 mmHg 57%
    04:00 +15°C° 0 mm 2 mps 747 mmHg 61%
    05:00 +17°C° 0 mm 2 mps 747 mmHg 55%
    06:00 +19°C° 0 mm 2 mps 747 mmHg 49%
    07:00 +20°C° 0 mm 2 mps 747 mmHg 43%
    08:00 +25°C° 0 mm 3 mps 747 mmHg 34%
    09:00 +29°C° 0 mm 3 mps 747 mmHg 25%
    10:00 +35°C° 0 mm 3 mps 747 mmHg 17%
    11:00 +36°C° 0 mm 4 mps 747 mmHg 14%
    12:00 +38°C° 0 mm 4 mps 747 mmHg 12%
    13:00 +41°C° 0 mm 5 mps 746 mmHg 10%
    14:00 +41°C° 0 mm 5 mps 746 mmHg 10%
    15:00 +41°C° 0 mm 5 mps 746 mmHg 11%
    16:00 +41°C° 0 mm 5 mps 746 mmHg 11%
    17:00 +37°C° 0 mm 5 mps 746 mmHg 15%
    18:00 +34°C° 0 mm 5 mps 746 mmHg 19%
    19:00 +30°C° 0 mm 4 mps 747 mmHg 23%
    20:00 +27°C° 0 mm 4 mps 747 mmHg 28%
    21:00 +24°C° 0 mm 3 mps 747 mmHg 34%
    22:00 +20°C° 0 mm 2 mps 747 mmHg 40%
    23:00 +19°C° 0 mm 2 mps 747 mmHg 44%

    Tomorrow, 28 January, Tuesday

    Time Temperature Precipitation Wind Pressure Humidity
    00:00 +18°C° 0 mm 2 mps 746 mmHg 48%
    01:00 +17°C° 0 mm 2 mps 746 mmHg 52%
    02:00 +16°C° 0 mm 1 mps 746 mmHg 60%
    03:00 +15°C° 0 mm 1 mps 746 mmHg 68%
    04:00 +14°C° 0 mm 1 mps 746 mmHg 75%
    05:00 +16°C° 0 mm 1 mps 746 mmHg 69%
    06:00 +18°C° 0 mm 2 mps 746 mmHg 63%
    07:00 +20°C° 0 mm 2 mps 746 mmHg 57%
    08:00 +24°C° 0 mm 2 mps 746 mmHg 48%
    09:00 +27°C° 0 mm 3 mps 746 mmHg 39%
    10:00 +31°C° 0 mm 3 mps 746 mmHg 30%
    11:00 +33°C° 0 mm 3 mps 746 mmHg 28%
    12:00 +35°C° 0 mm 4 mps 746 mmHg 26%
    13:00 +37°C° 0 mm 4 mps 746 mmHg 25%
    14:00 +35°C° 0.1 mm 5 mps 746 mmHg 29%
    15:00 +34°C° 0.1 mm 6 mps 746 mmHg 33%
    16:00 +32°C° 0.1 mm 7 mps 746 mmHg 38%
    17:00 +29°C° 0.1 mm 6 mps 746 mmHg 46%
    18:00 +26°C° 0.1 mm 5 mps 746 mmHg 55%
    19:00 +22°C° 0.1 mm 4 mps 747 mmHg 64%
    20:00 +20°C° 0 mm 3 mps 747 mmHg 67%
    21:00 +19°C° 0 mm 2 mps 747 mmHg 71%
    22:00 +17°C° 0 mm 2 mps 747 mmHg 75%
    23:00 +15°C° 0 mm 2 mps 747 mmHg 74%

    Day after tomorrow, 29 January, Wednesday

    Time Temperature Precipitation Wind Pressure Humidity
    00:00 +14°C° 0 mm 2 mps 747 mmHg 73%
    01:00 +13°C° 0 mm 2 mps 747 mmHg 71%
    02:00 +12°C° 0 mm 2 mps 747 mmHg 76%
    03:00 +10°C° 0 mm 2 mps 747 mmHg 80%
    04:00 +9°C° 0 mm 2 mps 747 mmHg 84%
    05:00 +10°C° 0 mm 2 mps 747 mmHg 78%
    06:00 +13°C° 0 mm 2 mps 748 mmHg 71%
    07:00 +14°C° 0 mm 2 mps 748 mmHg 65%
    08:00 +18°C° 0 mm 2 mps 748 mmHg 54%
    09:00 +22°C° 0 mm 3 mps 748 mmHg 43%
    10:00 +27°C° 0 mm 3 mps 748 mmHg 32%
    11:00 +30°C° 0 mm 3 mps 747 mmHg 26%
    12:00 +33°C° 0 mm 3 mps 747 mmHg 20%
    13:00 +35°C° 0 mm 3 mps 747 mmHg 14%
    14:00 +36°C° 0 mm 3 mps 747 mmHg 12%
    15:00 +36°C° 0 mm 4 mps 747 mmHg 10%
    16:00 +36°C° 0 mm 4 mps 747 mmHg 8%
    17:00 +33°C° 0 mm 4 mps 747 mmHg 9%
    18:00 +29°C° 0 mm 3 mps 748 mmHg 11%
    19:00 +26°C° 0 mm 3 mps 748 mmHg 13%
    20:00 +22°C° 0 mm 3 mps 748 mmHg 20%
    21:00 +20°C° 0 mm 2 mps 748 mmHg 26%
    22:00 +17°C° 0 mm 2 mps 748 mmHg 33%
    23:00 +16°C° 0 mm 2 mps 748 mmHg 37%

    30 January, Thursday

    Time Temperature Precipitation Wind Pressure Humidity
    00:00 +14°C° 0 mm 1 mps 748 mmHg 40%
    01:00 +13°C° 0 mm 1 mps 747 mmHg 44%
    02:00 +12°C° 0 mm 1 mps 747 mmHg 50%
    03:00 +11°C° 0 mm 1 mps 747 mmHg 56%
    04:00 +10°C° 0 mm 1 mps 747 mmHg 62%
    05:00 +12°C° 0 mm 1 mps 747 mmHg 56%
    06:00 +14°C° 0 mm 2 mps 747 mmHg 50%
    07:00 +16°C° 0 mm 2 mps 747 mmHg 43%
    08:00 +20°C° 0 mm 2 mps 747 mmHg 33%
    09:00 +26°C° 0 mm 2 mps 747 mmHg 24%
    10:00 +30°C° 0 mm 3 mps 747 mmHg 14%
    11:00 +33°C° 0 mm 3 mps 747 mmHg 12%
    12:00 +36°C° 0 mm 3 mps 747 mmHg 11%
    13:00 +38°C° 0 mm 3 mps 747 mmHg 9%
    14:00 +38°C° 0 mm 3 mps 746 mmHg 9%
    15:00 +39°C° 0 mm 3 mps 746 mmHg 8%
    16:00 +40°C° 0 mm 4 mps 746 mmHg 7%
    17:00 +35°C° 0 mm 3 mps 747 mmHg 10%
    18:00 +30°C° 0 mm 3 mps 747 mmHg 12%
    19:00 +26°C° 0 mm 3 mps 747 mmHg 15%
    20:00 +24°C° 0 mm 2 mps 747 mmHg 19%
    21:00 +21°C° 0 mm 1 mps 748 mmHg 24%
    22:00 +18°C° 0 mm 1 mps 748 mmHg 28%
    23:00 +16°C° 0 mm 1 mps 747 mmHg 31%

    31 January, Friday

    Time Temperature Precipitation Wind Pressure Humidity
    00:00 +15°C° 0 mm 1 mps 747 mmHg 34%
    01:00 +13°C° 0 mm 0 mps 747 mmHg 37%
    02:00 +12°C° 0 mm 0 mps 747 mmHg 41%
    03:00 +12°C° 0 mm 0 mps 747 mmHg 46%
    04:00 +12°C° 0 mm 1 mps 747 mmHg 51%
    05:00 +14°C° 0 mm 1 mps 747 mmHg 47%
    06:00 +16°C° 0 mm 1 mps 747 mmHg 44%
    07:00 +19°C° 0 mm 1 mps 747 mmHg 40%
    08:00 +23°C° 0 mm 1 mps 747 mmHg 32%
    09:00 +28°C° 0 mm 1 mps 747 mmHg 24%
    10:00 +32°C° 0 mm 2 mps 747 mmHg 16%
    11:00 +35°C° 0 mm 2 mps 747 mmHg 14%
    12:00 +37°C° 0 mm 2 mps 747 mmHg 12%
    13:00 +39°C° 0 mm 2 mps 746 mmHg 10%
    14:00 +39°C° 0 mm 3 mps 746 mmHg 10%
    15:00 +40°C° 0 mm 4 mps 746 mmHg 10%
    16:00 +40°C° 0 mm 6 mps 746 mmHg 10%
    17:00 +35°C° 0 mm 4 mps 747 mmHg 16%
    18:00 +29°C° 0 mm 3 mps 747 mmHg 22%
    19:00 +25°C° 0 mm 1 mps 747 mmHg 27%
    20:00 +22°C° 0 mm 1 mps 747 mmHg 34%
    21:00 +20°C° 0 mm 1 mps 747 mmHg 41%
    22:00 +18°C° 0 mm 1 mps 747 mmHg 48%
    23:00 +16°C° 0 mm 1 mps 747 mmHg 52%

    1 February, Saturday

    Time Temperature Precipitation Wind Pressure Humidity
    00:00 +14°C° 0 mm 1 mps 747 mmHg 57%
    01:00 +13°C° 0 mm 1 mps 747 mmHg 62%
    02:00 +13°C° 0 mm 1 mps 747 mmHg 65%
    03:00 +12°C° 0 mm 1 mps 747 mmHg 68%
    04:00 +11°C° 0 mm 1 mps 747 mmHg 71%
    05:00 +13°C° 0 mm 1 mps 747 mmHg 65%
    06:00 +15°C° 0 mm 1 mps 747 mmHg 59%
    07:00 +17°C° 0 mm 2 mps 747 mmHg 53%
    08:00 +20°C° 0 mm 2 mps 747 mmHg 45%
    09:00 +25°C° 0 mm 2 mps 747 mmHg 37%
    10:00 +28°C° 0 mm 3 mps 747 mmHg 28%
    11:00 +30°C° 0 mm 3 mps 747 mmHg 25%
    12:00 +33°C° 0 mm 4 mps 747 mmHg 22%
    13:00 +35°C° 0 mm 4 mps 747 mmHg 18%
    14:00 +34°C° 0 mm 5 mps 747 mmHg 20%
    15:00 +34°C° 0 mm 6 mps 747 mmHg 22%
    16:00 +33°C° 0 mm 7 mps 747 mmHg 24%
    17:00 +28°C° 0 mm 6 mps 747 mmHg 39%
    18:00 +25°C° 0 mm 4 mps 747 mmHg 53%
    19:00 +20°C° 0 mm 3 mps 747 mmHg 67%
    20:00 +18°C° 0 mm 2 mps 748 mmHg 76%
    21:00 +18°C° 0 mm 1 mps 748 mmHg 84%
    22:00 +14°C° 0 mm 0 mps 749 mmHg 92%
    23:00 +13°C° 0 mm 0 mps 748 mmHg 93%
    Show more